This demonstration page uses our WeatherBlox Daily Observations layout. Learn more.

41.55636, -103.73856

Hourly Observations for June 7, 2020

Temp ( °F °C ) Dew Point ( °F °C ) Humidity (%) Winds ( mph kmh ) Pressure ( in mb ) Visibility ( mi km ) Precip ( " mm )
12:58 am 00:58 Mostly Cloudy 65 18.5 51 10.4 59 59 S 16 26 29.58 1002 10 16.0934 0 0
1:58 am 01:58 Mostly Clear 65 18.1 52 11 63 63 W 12 19 29.61 1003 10 16.0934 0 0
2:58 am 02:58 Clear 67 19.3 47 8.4 49 49 SSW 18 30 29.56 1001 10 16.0934 0 0
3:58 am 03:58 Clear 61 16.3 51 10.5 69 69 WNW 15 24 29.61 1003 10 16.0934 0 0
4:58 am 04:58 Clear 59 15 50 10 72 72 W 7 11 29.61 1003 10 16.0934 0 0
5:58 am 05:58 Clear 60 15.4 49 9.4 68 68 Calm 29.61 1003 10 16.0934 0 0
6:58 am 06:58 Clear 56 13.1 46 8 71 71 S 5 7 29.61 1003 10 16.0934 0 0
7:58 am 07:58 Clear 57 13.7 48 8.9 73 73 ESE 8 13 29.59 1002 10 16.0934 0 0
8:58 am 08:58 Clear 51 10.4 46 7.7 84 84 SW 5 7 29.57 1002 10 16.0934 0 0
9:58 am 09:58 Clear 55 12.5 47 8.3 76 76 ESE 3 6 29.55 1001 10 16.0934 0 0
10:58 am 10:58 Clear 50 10.2 46 7.7 85 85 WSW 3 6 29.54 1001 10 16.0934 0 0
11:58 am 11:58 Sunny 53 11.7 46 7.7 77 77 WSW 3 6 29.6 1002 10 16.0934 0 0
12:58 pm 12:58 Sunny 54 12.1 48 8.7 80 80 Calm 29.59 1002 10 16.0934 0 0
1:58 pm 13:58 Sunny 62 16.8 50 10 64 64 Calm 29.57 1001 10 16.0934 0 0
2:58 pm 14:58 Sunny 66 18.9 50 10.2 57 57 WNW 16 26 29.57 1001 10 16.0934 0 0
3:58 pm 15:58 Sunny 72 22.1 46 7.9 40 40 NNW 10 17 29.57 1001 10 16.0934 0 0
4:58 pm 16:58 Sunny 76 24.6 44 6.7 32 32 N 6 9 29.55 1001 10 16.0934 0 0
5:58 pm 17:58 Sunny 79 25.9 43 6.2 28 28 NE 7 11 29.53 1000 10 16.0934 0 0
6:58 pm 18:58 Sunny 80 26.4 40 4.7 25 25 NNE 5 7 29.54 1000 10 16.0934 0 0
7:58 pm 19:58 Sunny 83 28.4 40 4.6 22 22 NNE 7 11 29.49 999 10 16.0934 0 0
8:58 pm 20:58 Sunny 84 28.9 43 6.2 24 24 E 3 6 29.45 997 10 16.0934 0 0
9:58 pm 21:58 Sunny 85 29.4 44 6.6 24 24 E 5 7 29.4 996 10 16.0934 0 0
10:58 pm 22:58 Partly Cloudy 85 29.2 46 7.6 26 26 ENE 6 9 29.38 995 10 16.0934 0 0
11:58 pm 23:58 Partly Cloudy 80 26.7 43 6 27 27 NNE 14 22 29.36 994 10 16.0934 0 0

Powered by AerisWeather